Location: ????????
(55.6189°N, 38.3031°E)
Time: 16:40:38
(UTC+00:00)

Cosmos 2322 Rocket - Pass Details

Date: 15 November 2019
Orbit: 832 x 851 km, 71.0° (Epoch: 10 December)

Event Time Altitude Azimuth Distance (km) Brightness Sun altitude
Exits shadow 00:23:46 25° 31° (NNE) 1,664 4.1 -38.1°
Drops below altitude 10° 00:28:07 10° 81° (E) 2,469 5.3 -37.6°
Sets 00:31:02 0° 95° (E) 3,406 6.1 -37.2°
